Manila, Philippines

5:09 PM +08 on October 20, 2018 (GMT +0800)
Ninoy Aquino International

Weather History for RPLL - February, 2018

Change the Weather History Date:

Wednesday, February 14, 2018

  Actual Average Record
Temperature  
Mean Temperature 80 °F -  
Max Temperature 84 °F 86 °F 91 °F (1998)
Min Temperature 75 °F 73 °F 69 °F (2017)
Cooling Degree Days 14    
Growing Degree Days 30 (Base 50)    
Moisture  
Dew Point 72 °F    
Average Humidity 75    
Maximum Humidity 89    
Minimum Humidity 62    
Precipitation  
Precipitation 0.00 in 0.01 in - ()
Sea Level Pressure  
Sea Level Pressure 29.95 in    
Wind  
Wind Speed 2 mph ()    
Max Wind Speed 8 mph    
Max Gust Speed -    
Visibility 6.2 miles    
Events      
Averages and records for this station are not official NWS values.
T = Trace of Precipitation, MM = Missing Value Source: Averaged Metar Reports

Daily Weather History Graph

Daily Weather History Graph

Search for Another Location

Airport or City:

Astronomy

Feb. 14, 2018 Rise Set
Actual Time 6:20 AM +08 6:00 PM +08
Civil Twilight 5:58 AM +08 6:21 PM +08
Nautical Twilight 5:33 AM +08 6:47 PM +08
Astronomical Twilight 5:08 AM +08 7:12 PM +08
Moon 5:00 AM +08 (2/14) 4:43 PM +08 (2/14)
Length of Visible Light 12h 23m
Length of Day
11h 39m
Waning Crescent, 3% of the Moon is Illuminated
Feb 14
Waning Crescent
Feb 16
New
Feb 23
First Quarter
Mar 2
Full
Mar 9
Last Quarter

Hourly Weather History & Observations

Time (+08) Temp. Heat Index Dew Point Humidity Pressure Visibility Wind Dir Wind Speed Gust Speed Precip Events Conditions
12:00 AM 78.8 °F - 69.8 °F 74% 29.98 in 6.2 mi NE 3.5 mph - N/A   Mostly Cloudy
1:00 AM 77.0 °F - 71.6 °F 83% 29.95 in 6.2 mi Calm Calm - N/A   Mostly Cloudy
2:00 AM 78 °F - 71 °F 74% 29.96 in 6 mi NE 2.2 mph - -   Haze
2:00 AM 77.0 °F - 71.6 °F 83% 29.95 in 6.2 mi Variable 2.3 mph - N/A   Mostly Cloudy
3:00 AM 78.8 °F - 69.8 °F 74% 29.95 in 6.2 mi Calm Calm - N/A   Scattered Clouds
4:00 AM 77.0 °F - 71.6 °F 83% 29.95 in 6.2 mi Variable 1.2 mph - N/A   Scattered Clouds
5:00 AM 77 °F - 72 °F 79% 29.96 in 6 mi Calm Calm - -   Haze
5:00 AM 77.0 °F - 71.6 °F 83% 29.95 in 6.2 mi Variable 1.2 mph - N/A   Mostly Cloudy
6:00 AM 77.0 °F - 71.6 °F 83% 29.95 in 6.2 mi Variable 1.2 mph - N/A   Scattered Clouds
7:00 AM 77.0 °F - 69.8 °F 78% 29.98 in 6.2 mi North 3.5 mph - N/A   Scattered Clouds
8:00 AM 79 °F - 71 °F 70% 29.99 in 6 mi Calm Calm - -   Haze
8:00 AM 78.8 °F - 71.6 °F 78% 29.98 in 6.2 mi Calm Calm - N/A   Mostly Cloudy
9:00 AM 80.6 °F 83.9 °F 69.8 °F 70% 30.01 in 6.2 mi Calm Calm - N/A   Mostly Cloudy
10:00 AM 80.6 °F 83.9 °F 69.8 °F 70% 30.01 in 6.2 mi Variable 2.3 mph - N/A   Mostly Cloudy
11:00 AM 80 °F - 71 °F 67% 30.00 in 6 mi West 4.5 mph - -   Haze
11:00 AM 80.6 °F 84.6 °F 71.6 °F 74% 29.98 in 6.2 mi West 4.6 mph - N/A   Overcast
12:00 PM 80.6 °F 84.6 °F 71.6 °F 74% 29.98 in 6.2 mi WNW 3.5 mph - N/A   Overcast
1:00 PM 82.4 °F 87.2 °F 71.6 °F 70% 29.92 in 6.2 mi Variable 2.3 mph - N/A   Overcast
2:00 PM 82 °F - 72 °F 65% 29.91 in 6 mi West 6.7 mph - -   Haze
2:00 PM 82.4 °F 87.2 °F 71.6 °F 70% 29.89 in 6.2 mi West 6.9 mph - N/A   Overcast
3:00 PM 82.4 °F 87.2 °F 71.6 °F 70% 29.89 in 6.2 mi WNW 5.8 mph - N/A   Mostly Cloudy
4:00 PM 84.2 °F 88.4 °F 69.8 °F 62% 29.89 in 6.2 mi ENE 8.1 mph - N/A   Mostly Cloudy
5:00 PM 83 °F - 72 °F 62% 29.91 in 6 mi ENE 4.5 mph - -   Haze
5:00 PM 82.4 °F 87.2 °F 71.6 °F 70% 29.92 in 6.2 mi ENE 4.6 mph - N/A   Mostly Cloudy
6:00 PM 82.4 °F 86.3 °F 69.8 °F 66% 29.92 in 6.2 mi East 8.1 mph - N/A   Mostly Cloudy
7:00 PM 82.4 °F 86.3 °F 69.8 °F 66% 29.92 in 6.2 mi ENE 4.6 mph - N/A   Mostly Cloudy
8:00 PM 80 °F - 75 °F 79% 29.88 in 6 mi ENE 2.2 mph - -   Haze
8:00 PM 80.6 °F 86.2 °F 75.2 °F 84% 29.95 in 6.2 mi ENE 2.3 mph - N/A   Mostly Cloudy
9:00 PM 78.8 °F - 75.2 °F 89% 29.95 in 6.2 mi Calm Calm - N/A   Mostly Cloudy
10:00 PM 78.8 °F - 75.2 °F 89% 29.95 in 6.2 mi Variable 1.2 mph - N/A   Mostly Cloudy
11:00 PM 79 °F - 75 °F 83% 29.97 in 6 mi Calm Calm - -   Haze
11:00 PM 78.8 °F - 75.2 °F 89% 29.98 in 6.2 mi Calm Calm - N/A   Mostly Cloudy